Location: Warszawa
(52.2500°N, 21.0000°E)
Time: 20:12:11
(UTC+02:00)

AO-91 - Pass Details

Date: 03 May 2024
Orbit: 441 x 737 km, 97.6° (Epoch: 20 May)

Event Time Altitude Azimuth Distance (km) Brightness Sun altitude
Rises 22:09:00 0° 17° (NNE) 2,484 ? -15.0°
Reaches altitude 10° 22:11:02 10° 23° (NNE) 1,628 ? -15.2°
Maximum altitude 22:14:26 54° 101° (E) 601 ? -15.4°
Enters shadow 22:15:54 31° 163° (SSE) 891 ? -15.6°
